Theta_e
332 331 333 333 331 330 330 330 329 328 328 329 328 329 333 335 334 330 331 332 331 331 331 332 330 329 330 328 329 331 331 332 334 335 335 335 337 337 338 336 336 337 336 336 337 338 334 335 332 332 332 331 331 331 333 332 332 332 332 331 329 328 328 331 331 330 328 325 327 327 326 328 331 330 329 328 329 329 329 329 328 328 328 330 328
327 327 328 327 327 327 327 328 327 324 326 327 327 329 332 333 334 332 332 331 330 331 331 332 332 332 330 330 331 331 331 331 331 333 334 335 337 337 337 336 335 336 337 337 338 335 334 333 332 331 333 331 331 333 332 332 331 331 331 327 329 328 327 330 330 328 323 323 322 321 323 325 329 328 329 328 328 329 329 328 327 327 327 328 330
324 324 325 325 325 325 325 326 327 326 326 327 328 329 330 334 334 334 333 332 329 330 331 332 332 333 332 332 332 330 333 333 333 334 334 333 335 337 337 337 337 336 338 339 337 336 334 332 331 332 333 332 330 330 330 329 330 331 330 326 327 327 329 330 328 325 322 324 323 321 318 318 322 324 326 328 329 327 330 330 329 327 329 329 330
322 322 322 323 323 323 324 325 326 326 325 327 327 327 329 333 334 333 332 333 333 333 333 331 331 332 334 334 332 331 330 334 334 334 334 333 333 336 336 337 338 337 340 340 337 335 333 332 332 332 332 333 329 329 328 329 329 330 329 328 329 327 327 328 329 327 326 323 316 315 316 317 315 317 321 323 328 327 328 328 329 328 328 329 328
322 320 321 321 321 322 323 324 326 326 326 326 326 327 328 332 334 333 332 332 333 335 331 332 333 332 333 332 333 333 333 332 332 331 332 332 333 332 333 335 337 338 338 338 336 334 333 333 333 333 330 333 331 330 329 329 331 329 330 329 329 326 325 326 329 329 327 326 320 317 314 312 311 318 321 321 326 325 328 329 329 330 328 327 326
322 321 320 321 321 321 322 324 325 325 326 327 328 329 329 333 334 334 333 333 333 334 333 332 330 330 329 328 328 328 327 328 328 328 329 330 331 332 333 334 336 336 337 336 336 335 333 334 333 333 332 332 332 330 330 331 331 330 330 331 329 327 327 326 326 328 328 330 327 321 317 312 316 319 319 315 324 326 326 328 328 327 327 327 327
320 321 321 320 320 321 321 322 324 326 327 328 329 332 334 335 334 335 334 333 334 335 335 333 331 331 329 329 329 328 327 328 330 330 330 331 332 331 332 333 335 335 335 334 334 334 333 333 332 331 333 333 333 332 331 330 331 331 333 331 331 329 328 326 326 325 326 327 330 328 329 326 324 320 314 319 315 321 325 326 326 328 328 327 328
320 320 320 320 320 321 320 322 324 327 330 333 332 332 335 335 335 335 334 333 334 335 334 334 332 331 330 329 328 327 327 327 329 329 330 332 332 332 332 333 334 333 333 333 333 333 332 332 332 331 331 334 334 333 332 330 331 333 332 331 330 330 328 327 325 326 323 323 326 327 327 327 326 322 322 319 317 316 318 325 326 325 326 325 327
322 321 320 320 320 320 321 321 323 326 329 332 332 333 335 336 335 334 332 332 333 335 334 333 333 332 331 329 326 328 329 330 330 331 331 331 330 331 331 332 332 331 331 332 332 333 333 332 331 333 333 333 333 333 332 333 332 331 331 330 329 329 328 327 326 324 325 323 324 322 325 324 325 324 324 321 318 317 317 319 320 325 325 325 326
324 323 322 321 321 321 322 322 323 325 329 331 332 331 332 334 334 333 332 332 332 333 333 332 332 332 330 328 327 327 328 329 330 329 328 327 327 328 328 328 329 329 330 331 331 333 333 332 332 334 332 333 332 333 332 331 332 331 331 330 330 329 327 329 326 325 325 325 326 324 320 319 321 321 320 320 319 320 317 318 320 320 318 321 325
324 324 323 323 323 322 322 322 323 325 328 329 330 330 330 332 332 332 331 331 332 332 332 331 331 331 330 329 328 328 328 328 326 326 326 325 325 325 324 325 326 327 329 330 330 333 332 332 332 332 330 330 331 333 330 331 332 332 332 331 330 329 327 327 327 326 325 324 326 324 322 321 318 316 319 319 319 316 317 318 319 320 319 319 321
324 324 323 323 322 322 322 322 322 324 326 326 327 329 328 329 331 330 330 330 331 332 332 331 331 331 331 330 329 329 329 328 326 326 326 325 324 324 324 324 325 327 329 329 330 332 331 330 331 332 330 329 330 330 330 331 332 332 330 329 329 328 328 327 328 327 326 326 324 324 323 323 322 321 322 322 320 319 320 318 318 320 320 320 324
324 324 323 321 320 320 320 321 321 322 323 325 324 323 325 328 329 330 330 331 331 331 332 332 331 331 331 331 330 330 329 328 327 326 326 325 324 324 324 324 325 326 327 329 329 331 330 329 329 327 328 328 328 330 330 329 330 331 330 329 328 328 327 328 326 326 326 325 323 323 324 325 324 324 324 322 321 322 321 318 318 321 317 318 322
315 315 317 317 317 318 319 320 320 320 322 323 323 324 327 328 329 329 331 332 332 331 329 328 329 329 328 328 330 330 328 328 328 328 327 326 326 325 325 325 325 327 328 328 330 331 330 330 329 327 327 327 327 326 328 328 328 329 329 328 329 328 327 328 327 325 324 326 326 325 324 325 325 327 324 324 323 321 319 318 317 317 318 318 319
314 315 316 317 318 319 320 321 320 319 321 321 323 327 329 330 327 329 331 331 331 329 326 325 328 327 327 328 327 329 329 329 329 329 328 327 327 326 326 327 328 328 328 328 330 329 328 328 327 326 325 324 324 324 327 325 325 326 328 328 328 329 329 329 328 327 328 327 326 326 326 325 325 328 326 325 324 323 321 320 318 314 314 315 315
316 316 316 317 319 319 320 322 323 322 322 322 321 324 327 328 326 328 330 330 330 326 326 327 326 327 328 327 325 328 330 329 328 329 329 328 328 328 327 328 328 328 328 328 328 327 326 326 326 324 324 324 325 324 323 325 326 326 325 327 327 332 329 327 326 327 326 326 326 325 326 324 326 326 326 324 324 324 323 321 319 318 314 311 313
315 316 317 317 318 319 320 321 322 322 323 323 323 324 322 325 328 328 329 328 327 326 325 326 326 326 327 329 327 324 327 327 328 328 328 329 328 328 328 328 328 327 327 327 326 326 325 325 324 323 323 323 323 324 324 325 324 325 325 324 325 326 327 327 326 327 326 326 325 325 324 324 325 324 325 325 325 324 324 322 321 318 316 313 310
316 317 317 318 318 317 319 321 322 322 321 323 323 325 326 325 324 323 323 323 324 324 325 324 324 326 326 328 327 326 326 328 327 328 330 328 327 327 327 326 326 327 327 327 325 326 326 327 322 322 322 323 323 324 323 324 324 323 324 324 325 324 324 323 325 327 327 327 326 325 323 324 324 325 324 324 326 323 323 323 321 318 317 315 311
316 316 317 317 317 317 318 319 322 323 322 322 323 324 325 325 324 324 324 325 325 326 326 326 326 327 328 329 329 328 327 327 329 328 327 326 325 325 325 325 325 326 326 325 324 323 322 322 322 322 322 322 323 322 322 324 323 321 321 322 322 322 321 320 322 326 326 327 326 325 323 323 323 324 324 325 325 322 320 322 320 319 317 315 313
314 315 317 318 318 318 319 320 321 321 322 322 322 323 323 324 324 324 325 325 324 324 325 324 325 326 328 330 328 328 328 326 327 325 325 324 325 325 325 324 324 325 325 323 322 322 322 321 322 322 322 321 320 320 322 322 322 321 320 321 319 321 321 321 321 322 327 326 325 324 325 324 324 324 324 324 321 322 321 319 318 318 317 316 315
314 315 316 317 318 319 319 320 322 322 322 321 321 322 322 322 322 323 324 324 323 324 325 325 326 327 328 327 325 325 326 327 327 326 325 324 324 325 325 325 324 324 323 321 321 321 321 322 321 321 321 319 318 319 320 320 319 318 319 319 319 319 317 317 319 320 324 325 324 324 324 325 325 323 322 322 321 320 319 319 317 317 316 316 313
314 315 316 317 318 319 320 321 321 321 321 321 322 322 322 321 322 322 323 324 324 324 324 325 325 326 326 326 325 325 325 326 326 326 325 325 325 325 325 324 323 323 323 321 320 320 321 321 320 320 320 319 318 320 319 318 317 318 318 320 317 316 315 317 316 320 320 324 322 322 326 325 325 324 322 322 320 319 319 317 316 317 316 316 315
314 315 315 315 317 318 320 321 321 321 321 321 322 322 322 322 323 323 322 322 325 325 325 324 323 324 324 325 325 324 325 325 325 325 325 325 325 324 324 324 323 323 323 321 321 320 320 320 319 320 319 319 319 319 318 319 317 314 313 314 317 315 313 314 318 319 321 322 322 322 322 323 325 321 321 320 318 317 315 312 314 314 313 314 314
312 313 313 314 315 316 317 319 321 320 320 320 322 322 322 322 323 322 322 322 324 324 325 324 324 323 323 324 324 324 324 325 325 325 324 324 324 323 324 324 323 322 323 321 322 322 320 318 318 318 319 319 320 319 318 317 316 314 313 315 315 314 315 316 317 319 321 323 322 321 321 323 321 319 319 317 315 316 315 312 314 314 314 313 312
310 310 311 312 313 313 314 315 316 318 319 319 320 321 323 323 323 322 322 323 322 323 323 324 324 323 322 322 322 323 323 324 323 324 324 323 322 322 322 323 322 322 322 320 320 320 319 316 317 316 317 317 319 318 318 315 315 314 314 316 314 316 317 316 318 320 325 321 322 321 322 320 318 317 318 316 316 315 316 314 313 313 313 315 316
307 308 308 308 309 310 312 313 314 315 316 317 318 318 319 321 323 323 323 322 322 323 322 322 323 322 322 321 321 321 322 324 324 324 323 322 321 321 322 322 322 322 320 319 319 318 318 316 314 315 315 318 319 318 315 314 314 315 315 315 316 316 315 317 319 319 320 320 320 319 319 319 318 317 316 316 316 315 317 316 315 314 314 314 313
304 304 305 306 306 306 308 310 312 313 314 315 316 316 317 318 319 323 324 322 322 322 322 321 321 321 320 322 321 321 322 323 324 323 323 322 321 321 322 322 322 321 319 318 318 318 317 316 315 315 316 317 318 317 314 313 315 317 317 317 316 315 316 316 315 316 318 320 319 319 318 319 318 317 317 316 318 318 318 317 318 317 315 312 313
303 302 302 303 304 305 305 306 308 310 312 313 313 314 314 315 316 318 322 321 320 320 321 321 321 320 320 320 320 322 323 323 323 323 323 322 321 320 320 320 321 320 319 319 319 318 317 314 315 314 316 316 314 313 313 314 317 317 317 317 317 316 316 316 317 318 317 317 318 317 316 316 316 315 315 315 318 317 318 317 317 318 317 316 315
300 300 300 301 302 304 304 304 305 307 309 311 311 311 312 313 314 315 316 319 321 321 321 322 321 321 322 322 322 323 322 323 322 322 322 321 320 320 320 320 320 320 321 319 319 318 317 314 316 315 313 312 310 308 306 305 315 317 317 316 316 316 317 317 317 318 319 319 318 317 315 315 318 316 311 312 314 317 317 314 313 315 315 315 314
299 299 299 300 301 302 303 303 303 305 308 309 309 309 309 310 311 312 312 314 317 319 320 321 321 321 322 322 321 321 322 321 322 321 320 320 320 320 319 318 318 318 318 318 317 317 316 316 315 312 311 309 307 305 300 298 304 317 318 319 318 317 316 317 318 317 318 320 320 319 320 320 316 314 308 301 301 304 311 314 312 312 312 313 312
299 299 299 299 299 299 301 301 302 304 307 307 307 307 308 308 309 310 310 312 313 312 316 320 320 321 321 321 320 320 320 319 319 319 320 320 320 320 317 317 318 318 316 316 316 317 318 317 314 311 308 306 303 300 295 293 296 304 317 318 319 319 319 320 318 317 315 317 319 321 320 322 321 320 314 302 299 298 298 301 304 309 314 312 310
297 298 298 299 298 298 298 299 300 303 306 306 305 306 306 306 307 308 309 310 310 310 311 317 319 320 320 320 319 319 318 317 318 318 318 319 320 320 319 319 319 319 318 319 320 319 318 315 313 310 308 305 300 296 293 294 295 298 308 318 319 320 321 319 319 319 319 318 319 319 319 319 319 321 320 317 313 306 302 300 298 299 300 301 305
296 296 297 297 298 298 299 299 299 300 304 305 305 305 304 305 306 307 308 309 309 309 310 311 315 320 320 320 319 318 316 316 316 316 316 317 318 318 318 319 318 318 318 319 318 317 315 313 311 308 305 303 301 294 293 294 294 296 302 313 318 319 320 318 319 320 320 319 318 317 318 318 323 323 321 319 318 317 309 304 301 300 298 297 296
296 297 296 297 297 298 298 299 299 300 301 304 304 304 304 305 305 306 306 307 307 308 308 309 311 314 318 318 317 316 316 315 315 315 315 314 315 315 317 318 318 317 317 317 318 317 315 312 310 307 304 301 298 294 293 294 294 295 301 310 319 319 320 320 319 319 318 318 317 316 316 317 318 319 319 318 317 317 315 314 315 315 313 311 297
295 295 295 296 296 297 298 298 298 299 300 300 301 303 303 303 303 303 305 306 306 306 307 307 308 311 315 317 316 315 315 315 315 314 313 314 313 315 315 317 318 318 316 315 316 315 313 311 309 306 302 300 297 292 292 293 294 297 302 308 319 320 321 321 319 318 318 318 318 317 315 316 317 317 315 314 316 315 315 315 316 316 317 316 315
294 295 295 296 295 296 297 298 300 299 299 299 299 300 301 301 302 302 303 304 304 304 305 306 307 308 311 314 316 315 315 315 314 314 313 313 313 314 314 315 317 318 318 317 317 317 314 312 309 304 300 298 296 292 292 293 294 298 303 315 318 319 320 320 320 319 318 317 317 316 315 314 314 315 300 295 299 309 316 316 314 314 315 313 306
294 295 295 297 297 296 297 298 299 299 299 299 300 300 300 299 299 300 300 302 302 302 303 304 305 307 309 310 312 314 314 315 314 313 312 312 313 314 314 316 316 317 317 317 316 315 313 309 305 302 299 297 296 293 292 293 293 297 304 312 314 316 318 317 317 318 317 317 317 317 316 314 313 305 294 292 292 301 315 315 315 315 314 311 309
295 296 296 297 297 297 297 297 297 298 299 300 300 300 299 298 298 299 299 299 300 301 302 303 303 305 308 309 309 310 310 312 314 314 314 314 314 314 314 314 315 314 314 314 313 309 307 305 302 300 299 297 296 294 293 293 294 296 303 310 312 313 314 315 316 316 313 309 306 310 310 309 305 301 292 292 293 307 314 314 314 312 312 310 309
296 296 295 296 297 297 298 297 296 296 298 299 300 300 299 298 298 297 298 297 298 299 301 301 302 303 303 306 309 309 309 309 309 311 313 314 314 314 314 315 315 315 314 313 310 307 305 303 302 300 301 297 296 296 293 293 294 296 301 304 305 306 306 307 312 312 309 305 301 300 299 297 298 293 290 291 293 303 310 310 310 310 309 307 307
297 297 297 296 296 296 296 296 295 295 297 298 298 297 298 298 298 298 297 296 297 298 300 301 301 302 302 302 304 308 309 309 308 309 310 312 313 314 313 313 312 312 311 309 307 306 304 304 303 302 300 298 297 295 294 293 294 295 296 301 301 301 302 304 306 311 310 305 302 300 298 291 291 291 290 289 290 293 305 307 307 307 304 303 303
295 296 297 297 296 296 295 295 295 296 296 297 297 297 296 296 297 297 297 298 298 299 300 300 301 301 301 301 302 303 304 305 306 307 308 310 311 311 311 310 309 309 308 307 305 304 302 301 301 300 300 299 299 296 294 292 293 293 294 297 299 299 300 302 304 304 305 303 300 299 298 293 291 291 290 290 290 290 291 304 306 305 302 299 297
296 296 297 296 296 297 297 297 296 297 297 297 296 296 296 296 296 296 297 299 300 299 299 300 300 300 300 301 301 302 302 303 303 303 303 305 308 311 311 310 309 307 306 305 304 303 302 301 300 299 298 298 299 298 296 293 292 293 292 294 298 298 298 303 303 303 302 302 301 299 298 294 290 291 291 290 290 290 290 301 297 291 292 293 301
295 295 296 296 295 295 295 296 297 297 297 297 296 295 295 295 295 296 298 299 300 300 300 300 300 300 300 300 300 300 301 302 301 301 301 300 301 301 304 308 308 307 307 305 304 302 300 299 299 299 298 297 297 297 294 295 293 292 292 292 292 294 294 301 301 301 300 299 299 299 299 294 290 291 291 291 290 290 296 295 289 290 291 290 293
297 298 296 297 295 296 295 296 297 297 297 297 296 295 295 295 295 297 298 299 300 300 300 300 299 298 298 299 299 300 299 299 299 299 299 298 298 299 299 300 302 305 305 304 303 301 299 298 298 297 298 297 297 296 294 293 293 292 292 292 292 292 292 296 299 300 300 299 298 297 295 290 291 291 291 291 290 291 293 291 289 290 290 292 297
295 297 298 297 296 296 296 296 296 297 297 297 297 296 295 294 296 298 299 299 299 299 297 297 299 299 298 299 299 299 298 298 297 296 296 296 296 297 297 298 299 298 298 298 298 301 302 300 299 297 296 295 295 295 294 293 292 292 292 292 292 292 292 292 297 297 295 295 292 291 290 290 290 291 291 294 293 292 291 289 289 287 295 296 299
296 295 296 296 296 296 296 296 296 297 297 297 297 297 295 296 297 298 299 299 298 297 297 296 296 295 296 298 297 297 297 297 297 296 295 295 294 294 294 295 297 297 297 296 296 296 296 295 295 296 294 293 293 293 292 291 292 293 292 292 292 292 293 293 294 293 291 291 291 291 292 292 293 293 291 292 292 294 291 290 287 289 293 295 297
295 296 296 296 296 295 295 295 294 295 296 296 296 296 297 297 298 299 299 299 297 296 296 296 295 295 295 295 295 294 294 294 295 295 295 294 293 292 292 293 294 294 294 294 294 294 294 294 294 294 294 293 292 291 290 289 289 288 289 290 291 292 292 292 293 291 291 290 291 292 292 292 292 290 289 290 289 291 293 293 292 292 292 293 295
296 297 297 296 295 295 295 295 295 295 295 296 296 296 297 298 299 300 299 298 297 296 296 296 295 294 293 293 292 289 291 292 292 293 293 293 292 292 291 290 291 292 292 292 292 292 292 292 291 291 291 291 291 290 288 287 287 287 286 287 288 289 288 287 289 288 288 289 290 291 292 293 293 294 294 294 293 294 292 291 293 293 292 292 296
295 296 295 295 295 295 295 295 295 295 295 295 295 296 297 297 298 299 299 297 296 294 295 295 296 294 293 292 292 291 291 291 291 291 290 290 291 291 290 290 290 290 291 292 292 292 293 293 291 290 289 289 289 288 288 288 285 288 286 286 287 286 286 285 288 288 288 289 290 291 291 292 291 290 290 291 291 292 290 291 293 295 294 295 295
295 295 295 295 295 294 294 293 294 295 295 295 295 296 297 298 298 298 298 296 294 294 293 293 293 294 294 292 291 291 292 291 291 290 290 290 288 289 290 290 289 289 289 289 289 290 292 292 290 289 289 288 286 287 289 288 288 289 289 288 289 288 288 287 287 287 288 288 288 289 289 289 290 290 289 289 289 289 289 289 290 290 292 294 291
293 293 293 294 294 294 293 293 293 294 294 294 294 295 296 297 297 298 297 296 295 293 292 291 292 292 291 293 292 291 291 291 290 290 289 288 288 289 288 288 289 289 288 288 288 289 289 289 291 290 289 290 290 289 289 289 289 289 289 289 289 289 289 287 287 287 288 289 289 289 288 288 289 289 288 288 288 288 288 288 288 287 288 289 290
Wind_Speed
8 11 11 12 14 14 11 10 8 3 6 10 10 8 7 8 6 8 7 8 7 6 6 7 8 7 9 10 6 6 6 4 3 4 4 3 4 4 4 4 5 5 5 5 6 6 5 5 5 4 4 5 5 5 4 5 3 2 5 3 6 8 1 3 5 8 9 7 5 4 5 3 3 3 4 3 3 3 2 3 2 3 3 4 2
11 12 13 12 11 13 10 9 9 10 8 11 13 12 6 5 7 7 6 6 5 6 6 4 7 8 7 7 5 6 6 7 6 5 5 6 5 5 5 5 5 5 6 5 5 6 6 5 5 5 5 5 5 5 5 4 3 2 4 1 5 9 7 6 7 9 3 7 7 4 2 2 4 5 4 2 2 2 2 2 2 3 3 3 2
9 11 11 11 12 12 10 9 8 9 12 11 11 9 8 8 8 8 8 7 6 6 6 5 4 3 2 3 4 2 1 3 3 5 5 5 4 6 6 7 7 6 6 6 6 6 6 6 5 5 5 5 5 5 5 5 3 3 6 5 3 3 6 6 8 3 6 5 5 6 3 3 2 3 0 0 0 0 2 2 2 3 3 2 3
13 13 12 11 12 12 10 9 7 6 6 8 12 14 10 10 9 8 8 7 6 6 4 3 2 1 2 4 2 1 1 5 4 4 4 5 5 6 5 5 7 7 6 6 6 6 6 6 5 5 5 5 5 6 5 5 4 2 3 7 5 5 4 4 3 5 7 9 4 2 4 4 4 1 2 2 1 2 2 1 3 2 2 2 3
13 12 12 12 12 13 14 12 10 11 10 12 14 13 10 12 12 10 8 7 6 6 9 7 7 5 3 5 3 3 3 5 5 5 6 6 6 5 5 5 5 6 6 6 6 6 6 5 5 5 5 5 5 5 6 5 5 5 6 5 5 6 5 2 1 5 7 4 6 5 3 1 2 3 4 2 1 3 1 2 1 4 4 3 3
16 17 15 14 14 11 11 12 12 11 12 12 10 13 12 11 10 10 8 7 7 7 11 9 9 8 7 8 9 8 8 8 9 9 8 8 8 5 4 3 3 3 5 6 6 6 6 5 5 5 5 5 5 5 4 5 5 7 8 5 5 5 6 5 3 1 4 4 4 3 4 4 7 5 2 4 1 1 2 1 2 3 3 2 2
6 9 12 13 12 12 12 11 12 12 12 11 7 7 11 11 11 10 9 8 7 8 11 10 9 8 9 9 8 8 8 6 5 5 7 7 5 6 5 4 3 4 5 5 5 5 5 5 4 3 4 4 4 4 4 5 5 4 5 5 5 5 6 6 6 3 1 1 2 2 2 2 9 9 2 4 4 1 1 2 3 3 3 3 3
10 10 10 11 13 15 15 11 12 14 12 10 9 8 10 12 12 12 9 8 7 9 10 9 9 8 8 6 6 6 7 7 6 6 3 4 5 5 4 4 4 4 5 5 5 5 4 4 4 3 3 2 4 5 5 4 3 3 5 5 4 4 6 7 6 5 5 3 2 3 4 6 7 3 6 6 6 6 3 1 3 3 2 2 2
9 10 11 11 12 12 11 11 10 12 9 10 11 10 8 10 12 11 10 8 8 10 9 8 8 9 8 7 4 4 4 5 5 4 4 3 5 4 4 3 3 3 4 4 4 4 3 3 3 2 4 2 1 5 3 5 6 6 5 5 4 4 4 5 6 5 4 4 4 3 5 5 5 5 5 4 4 5 3 4 3 0 1 2 1
9 11 11 11 11 11 9 8 9 10 8 10 10 7 6 9 11 12 10 8 7 10 9 8 7 8 7 7 8 6 3 3 5 5 4 3 5 5 4 4 4 4 3 4 4 4 4 4 3 2 3 4 2 3 4 5 5 5 4 4 4 4 3 5 5 5 5 4 4 5 4 3 4 3 3 5 3 3 7 6 6 6 5 2 2
9 12 12 12 12 10 8 10 10 8 7 9 10 9 5 7 10 12 11 9 7 9 10 9 8 8 8 8 8 8 7 6 5 4 4 3 4 4 4 4 2 2 3 4 5 5 6 5 4 4 3 3 2 5 5 5 5 5 4 4 4 5 4 3 4 4 5 4 4 6 6 7 6 4 6 5 5 3 5 6 5 4 6 6 3
7 9 9 8 6 6 6 8 8 9 8 8 6 5 5 3 6 9 10 9 6 8 9 9 8 8 6 7 8 8 9 7 7 7 7 6 5 5 3 4 3 3 4 5 5 5 5 5 5 6 5 4 5 5 3 5 6 5 4 4 4 3 3 3 4 5 4 4 4 5 5 5 3 5 5 6 7 6 8 8 6 4 4 2 3
3 5 5 4 3 3 4 3 3 5 8 6 1 2 3 0 2 6 9 8 6 7 8 9 8 6 5 6 6 7 8 7 6 7 5 6 5 5 5 6 5 5 3 5 5 8 6 5 5 7 6 7 5 5 4 3 5 6 5 4 4 4 4 4 5 5 5 5 5 3 5 4 4 4 5 5 4 7 8 8 5 6 5 5 4
11 11 12 12 12 12 12 11 10 10 11 11 7 5 3 1 1 2 6 7 6 5 5 3 2 3 1 1 4 6 6 6 6 6 5 5 6 6 7 6 6 5 5 6 6 7 6 5 4 4 4 4 5 6 7 5 5 6 6 6 5 5 4 4 4 4 3 5 5 5 4 5 4 5 5 5 6 8 7 8 8 3 5 6 3
7 8 9 7 8 7 4 3 3 8 12 13 10 5 3 1 2 3 5 7 7 6 8 2 3 6 5 3 2 3 6 6 7 6 6 7 6 7 6 6 6 5 6 6 6 6 6 6 5 5 5 5 4 4 6 5 4 4 4 5 4 4 5 5 4 4 4 5 4 5 5 5 5 5 6 5 5 7 8 7 9 10 4 4 3
10 9 8 6 7 6 6 6 6 4 6 3 4 8 3 4 2 4 7 9 8 11 6 5 6 5 2 2 2 2 6 6 7 7 7 7 6 6 6 6 6 6 5 6 6 6 7 7 6 6 5 4 4 4 4 5 6 5 4 5 4 3 5 5 4 5 4 4 5 4 4 3 4 4 4 5 6 5 6 6 7 9 11 7 3
11 9 7 7 6 4 4 5 6 4 7 7 4 5 1 5 2 1 2 8 9 10 10 8 7 5 3 5 3 2 4 6 7 8 8 6 6 6 6 6 6 6 6 7 6 7 7 7 6 5 4 3 3 3 4 6 5 5 5 4 4 3 4 5 4 5 4 4 4 4 4 4 3 3 3 3 4 4 5 7 7 8 7 10 7
10 8 4 2 0 1 3 4 6 6 8 12 7 7 2 6 10 10 8 8 7 8 7 7 6 6 7 7 6 5 4 5 5 7 5 6 6 7 7 7 7 7 7 6 7 6 6 7 6 5 4 4 4 3 5 5 5 4 4 5 4 3 4 3 4 5 5 4 4 3 3 4 3 4 5 4 4 6 5 5 6 6 7 9 6
9 8 6 5 3 4 5 6 6 8 10 10 9 6 6 4 4 8 13 9 8 8 6 4 4 6 5 5 6 4 1 1 4 2 5 7 8 8 9 8 8 7 8 7 7 7 7 6 5 4 4 4 3 4 5 5 5 4 3 4 4 4 4 3 3 5 4 4 4 4 3 3 3 4 3 3 5 5 6 7 6 7 7 7 7
7 7 6 6 5 5 4 4 6 6 7 10 11 9 7 6 3 5 9 9 10 12 9 7 6 5 4 5 4 5 4 6 9 1 7 7 7 8 8 8 7 7 7 7 7 7 7 6 4 4 4 3 4 4 5 5 5 5 5 5 3 3 4 4 4 3 4 4 4 4 4 4 3 3 2 2 5 5 5 6 5 6 7 8 9
7 7 7 8 7 6 6 5 6 6 6 5 7 13 9 3 4 2 9 11 11 9 7 7 6 7 7 9 8 7 8 8 6 6 8 7 7 7 7 6 6 6 7 8 7 6 6 5 4 4 3 4 5 4 4 5 5 6 5 4 3 3 4 4 4 2 3 4 4 4 3 4 4 4 2 1 2 2 4 4 5 5 6 7 8
7 7 8 8 8 8 8 7 7 7 7 7 5 3 11 10 5 4 4 6 9 8 7 7 6 6 7 8 8 7 9 9 8 3 7 6 6 6 6 6 6 6 7 8 7 6 6 5 4 3 3 4 3 3 4 4 4 3 3 3 2 3 3 4 4 4 3 4 4 4 3 2 4 4 4 3 3 2 3 3 5 5 6 6 6
10 11 10 10 11 10 8 8 9 9 7 5 5 4 2 5 10 8 6 4 5 7 6 4 2 3 5 6 7 7 8 9 6 5 8 7 7 7 6 7 6 6 6 8 7 7 7 6 5 4 4 3 2 4 4 4 4 5 4 2 3 6 5 4 5 5 4 4 4 4 3 3 3 4 2 1 0 1 1 3 4 3 4 4 4
10 10 10 10 10 11 11 10 8 8 8 8 6 4 4 4 6 8 7 4 4 4 6 7 6 4 3 5 7 7 8 6 6 6 9 8 8 6 6 7 6 5 7 7 8 7 7 6 6 5 4 4 3 3 3 4 4 3 3 2 3 5 4 4 5 5 5 5 4 4 4 3 3 3 1 2 1 1 3 4 8 4 4 3 5
9 10 11 12 12 12 11 11 11 9 9 8 9 9 7 5 5 5 7 4 2 4 5 5 6 5 3 2 3 7 8 5 4 7 10 10 8 7 6 8 6 5 6 7 6 5 6 7 7 6 5 4 4 4 3 4 4 2 2 3 3 4 2 3 5 6 6 5 5 4 3 3 4 3 1 1 2 3 3 3 6 6 6 5 5
11 11 12 12 10 10 11 10 10 10 9 9 9 9 9 8 4 1 4 3 3 6 3 3 3 5 5 4 3 4 6 5 7 9 10 9 8 6 6 6 6 6 7 6 5 4 6 6 6 6 6 5 5 4 5 5 4 3 3 3 4 3 4 6 5 5 5 4 4 4 4 4 3 2 0 3 3 4 5 5 4 3 5 5 5
10 10 9 10 11 11 11 10 9 9 9 9 9 9 9 9 10 5 4 0 7 1 3 1 2 3 3 5 4 4 4 5 7 9 9 8 8 6 6 6 5 6 7 5 5 5 4 6 5 5 6 7 5 5 6 5 4 3 4 4 4 4 4 4 5 4 4 4 4 4 3 4 3 3 4 4 5 5 6 5 5 4 3 4 5
10 12 12 11 9 9 9 9 9 9 9 9 9 9 8 9 9 8 5 0 5 4 1 3 3 3 2 3 4 2 2 3 5 6 7 8 7 6 7 6 5 6 6 5 5 6 4 5 6 5 5 6 7 6 4 1 4 4 5 4 5 5 5 4 5 6 7 7 6 6 5 4 5 4 5 4 5 5 5 6 4 5 6 7 5
12 11 11 10 10 9 9 9 9 10 11 10 10 10 9 9 9 8 8 6 1 3 5 1 4 3 4 3 3 1 3 5 4 4 6 7 6 5 6 6 7 6 5 5 5 5 5 5 9 9 9 8 8 7 5 4 1 5 5 5 5 5 6 5 5 7 8 8 7 7 6 6 7 9 10 7 6 4 5 6 3 5 5 5 4
10 11 11 11 11 10 10 9 9 10 11 10 9 9 9 9 9 9 9 8 6 5 3 3 4 5 6 5 4 4 5 3 4 4 5 5 5 5 6 6 6 5 6 6 6 4 7 11 10 9 9 8 7 5 8 9 6 6 5 5 4 4 5 4 5 9 10 9 8 7 7 12 11 11 10 10 10 10 8 5 4 5 4 4 4
9 9 10 10 10 10 10 11 10 9 10 9 8 9 10 10 9 9 9 8 8 9 8 7 8 7 7 5 6 7 7 7 6 7 6 7 6 5 6 6 6 5 5 6 6 9 10 10 10 9 10 8 6 6 10 9 12 12 8 7 7 5 4 7 8 8 6 6 5 5 5 7 7 6 7 10 10 13 13 7 7 6 4 4 4
10 10 10 10 10 10 11 10 10 9 10 9 9 9 10 10 9 9 8 9 10 11 11 9 9 9 8 6 6 7 8 6 8 8 7 8 8 8 8 7 8 8 7 8 10 9 9 9 9 10 9 7 6 8 9 10 11 11 9 7 6 6 6 6 7 7 6 7 7 7 5 4 2 3 3 4 5 7 8 8 10 5 4 3 3
9 10 9 9 9 9 9 10 10 10 10 10 9 10 10 9 9 8 9 11 11 11 11 12 9 6 9 7 7 7 7 7 7 9 8 8 9 9 8 9 9 7 9 10 9 10 9 9 10 11 9 8 6 9 10 10 10 10 11 9 6 6 7 6 6 7 7 7 6 5 3 2 1 5 3 3 3 2 4 5 4 10 6 2 1
9 9 9 8 8 8 9 10 10 10 9 6 8 9 9 8 8 10 11 11 12 12 12 11 11 10 6 7 7 7 6 6 7 8 9 8 9 9 7 7 8 9 9 8 9 10 9 9 9 10 8 7 8 9 9 9 10 9 10 9 5 6 5 6 6 6 6 6 4 4 3 2 1 2 4 3 0 1 4 3 2 3 6 9 5
8 9 9 9 9 9 9 9 9 9 9 10 10 8 8 10 10 11 11 11 12 13 12 11 11 9 8 6 8 6 5 6 8 9 8 8 7 8 8 7 9 9 8 7 7 9 8 8 8 8 8 8 8 10 9 10 11 9 11 9 5 5 6 6 6 5 5 5 4 3 3 2 1 2 3 1 1 3 2 1 0 3 5 5 1
8 7 8 9 10 9 8 7 7 8 10 10 10 10 9 9 9 10 10 11 11 12 12 11 11 11 9 6 5 6 7 6 7 8 8 8 7 7 8 6 9 9 8 7 7 7 9 9 9 10 10 10 8 13 11 12 12 11 12 7 7 7 7 7 6 5 3 2 3 3 2 0 2 6 7 8 5 1 1 3 2 3 6 4 1
7 8 8 8 9 10 10 8 8 9 10 9 9 9 10 11 11 11 11 11 12 12 11 10 10 10 9 8 7 6 7 6 6 8 7 6 6 6 6 6 9 8 8 8 8 9 8 8 9 9 10 7 7 11 14 13 12 11 9 6 5 6 6 6 5 5 4 4 3 1 1 1 6 6 7 8 7 4 1 3 2 5 5 2 2
6 8 8 9 10 11 11 10 10 11 10 8 7 9 10 11 11 11 11 11 12 11 10 10 10 9 8 8 9 9 9 8 7 7 5 4 5 4 4 4 8 8 8 7 8 9 10 9 10 11 9 10 8 11 14 12 11 9 7 6 5 6 6 6 6 5 6 7 10 16 11 8 7 5 8 9 8 3 3 3 2 1 4 5 4
8 7 8 8 8 8 10 12 12 14 13 11 9 9 10 11 11 10 11 12 11 10 10 10 9 9 9 9 9 9 8 8 8 6 5 5 5 6 5 7 8 8 9 8 8 10 9 9 9 10 13 13 9 10 13 15 16 15 11 7 6 7 8 6 4 6 6 6 6 7 10 7 6 4 6 7 9 6 5 4 3 2 3 3 4
7 8 7 6 6 9 12 12 13 12 11 11 9 10 11 10 10 10 11 10 9 8 7 7 8 9 9 9 8 7 8 8 7 7 6 5 5 6 8 9 8 8 9 8 8 9 10 8 7 9 9 9 10 8 12 17 16 16 14 10 7 8 7 6 5 5 7 6 6 6 7 9 9 8 8 9 8 9 5 3 2 2 3 3 5
9 8 5 7 9 9 10 10 9 10 10 9 8 10 11 10 9 9 10 8 7 6 7 7 8 9 10 10 9 8 9 9 8 7 6 6 6 7 8 9 9 8 9 9 9 8 9 8 8 7 8 7 7 9 11 15 16 15 14 12 8 7 5 5 7 8 6 5 5 5 5 8 10 9 8 8 7 7 5 3 5 4 2 4 5
8 10 10 7 8 9 9 9 8 9 9 8 8 10 10 10 10 12 9 5 6 7 6 7 8 8 9 9 9 9 9 8 9 9 9 8 7 6 6 7 7 8 10 10 8 9 9 8 8 8 8 8 9 11 9 13 14 14 14 13 9 7 5 5 7 6 5 5 4 4 4 6 9 9 8 7 6 4 3 3 3 1 3 4 4
10 11 12 10 9 10 10 9 8 8 7 6 8 10 9 9 11 10 8 8 5 5 7 8 8 8 8 8 9 10 9 8 9 9 10 9 8 8 7 6 6 6 8 8 8 8 8 8 8 7 7 7 8 9 12 10 13 14 14 14 12 8 8 6 5 5 4 2 1 1 2 6 8 8 8 8 6 4 3 2 2 4 5 6 4
5 6 8 11 11 10 10 11 10 9 8 7 7 8 8 10 10 7 8 8 8 6 5 7 7 7 7 8 9 9 9 9 9 9 10 10 9 8 8 7 6 6 6 6 6 6 6 7 8 7 6 6 6 7 11 13 11 14 14 14 13 13 10 4 4 5 3 4 4 4 4 6 5 5 7 7 4 5 3 2 3 4 6 4 2
7 6 4 6 8 8 9 11 11 11 9 9 7 6 7 9 6 6 7 8 8 7 7 7 6 6 8 8 9 9 9 9 9 9 10 9 9 8 9 8 9 9 8 7 5 4 5 6 7 7 6 6 6 7 7 10 13 13 14 14 13 14 15 11 6 5 5 5 6 8 9 9 8 7 7 3 2 2 1 3 4 5 4 3 5
5 6 6 6 6 7 9 10 10 11 10 9 8 6 7 4 4 5 5 5 6 7 8 8 8 8 8 8 9 9 10 9 9 9 9 8 8 8 8 7 8 8 8 8 7 8 8 7 7 6 6 6 6 6 7 7 7 8 9 12 12 13 13 12 9 8 10 11 12 11 11 9 6 4 3 3 4 5 7 5 3 2 3 4 3
6 4 4 5 5 7 7 7 8 7 7 8 8 8 6 4 4 3 4 4 5 6 5 5 7 7 8 8 9 7 8 9 9 8 8 8 7 7 8 9 7 7 8 8 8 8 8 8 7 5 5 5 5 6 6 6 6 6 6 7 8 8 9 9 8 8 9 8 10 9 8 10 8 7 5 4 4 5 5 6 6 4 3 3 1
3 3 4 4 5 5 5 5 5 5 5 6 7 7 7 6 5 3 3 5 5 5 5 5 6 6 7 7 7 9 9 7 8 8 8 8 9 8 10 9 7 6 7 7 7 8 7 6 5 4 4 5 5 5 6 7 6 6 5 5 5 5 6 5 6 6 6 6 6 8 9 8 8 8 8 7 7 6 5 5 6 5 4 4 3
2 2 3 4 4 5 5 5 4 3 4 4 5 6 7 6 7 6 3 5 7 6 6 6 5 6 7 7 7 7 6 7 7 8 8 7 6 7 8 8 7 5 5 6 7 6 6 5 5 6 6 6 6 6 4 2 3 4 4 4 5 4 3 3 3 5 4 4 5 8 10 10 10 9 10 10 10 10 9 9 8 7 6 6 4
2 3 3 4 4 4 5 5 5 4 4 4 4 4 5 5 5 7 7 4 4 5 6 6 6 6 6 7 6 6 6 6 7 7 8 9 12 13 9 7 6 9 13 12 8 6 4 5 6 5 4 6 3 1 5 5 4 4 4 5 5 5 3 1 3 4 1 6 8 8 8 8 8 8 9 9 8 7 8 8 8 10 10 9 8
4 6 4 2 3 5 5 5 4 4 4 4 5 5 5 5 7 9 9 7 6 6 7 7 7 6 6 6 6 6 6 6 6 6 6 6 6 7 10 11 8 8 9 11 12 11 11 8 4 4 1 4 4 0 4 5 6 6 6 4 2 2 4 4 2 6 7 9 8 8 7 7 7 8 8 7 7 7 7 7 6 6 7 8 7
Wind_Direction
117 105 105 100 95 98 112 127 144 141 95 96 114 143 212 179 164 164 185 193 170 146 141 143 145 144 152 176 195 196 172 168 161 144 137 150 158 152 141 135 130 136 143 148 140 136 137 129 124 107 110 103 107 111 114 113 109 120 100 153 190 127 122 144 109 105 121 99 56 55 49 25 74 86 92 74 72 91 102 99 97 100 104 114 113
111 100 104 105 112 116 124 136 154 151 155 152 160 165 178 198 179 174 188 193 193 150 143 158 157 180 172 172 183 201 162 159 154 154 166 175 161 157 149 148 156 156 156 155 142 142 142 132 133 137 124 111 115 123 123 126 120 133 112 96 214 140 158 171 149 138 125 136 137 126 84 44 55 60 48 51 52 60 93 108 110 118 110 132 129
119 112 113 117 119 125 133 148 174 166 168 181 152 149 182 194 192 171 186 191 188 160 164 170 151 160 149 159 173 195 281 72 119 174 176 155 175 177 164 166 164 165 159 153 147 148 145 137 142 143 130 131 128 120 130 147 140 170 128 198 173 117 118 158 184 158 131 129 124 115 147 99 16 52 57 252 125 124 137 135 122 116 135 153 140
149 138 131 133 137 138 142 153 166 157 184 211 153 170 184 189 185 182 187 183 170 168 139 69 60 256 138 105 92 300 165 118 134 180 153 150 185 183 174 175 169 162 154 150 147 143 145 147 144 142 141 149 151 137 144 152 165 137 115 231 140 129 137 161 180 135 131 142 143 174 172 123 115 160 115 31 47 106 106 132 139 141 134 132 129
155 138 136 140 145 155 158 165 167 171 192 224 169 174 180 184 180 179 180 182 166 160 126 145 146 169 110 109 126 116 108 132 150 168 172 177 185 190 181 185 173 151 148 148 142 146 143 145 145 146 150 154 146 137 153 184 169 147 194 201 141 148 149 139 122 139 153 163 144 121 87 100 198 156 124 75 43 49 124 196 151 129 143 159 154
162 159 153 154 156 161 165 167 167 176 186 225 200 174 173 177 168 164 167 173 171 155 140 152 160 164 156 153 159 168 161 164 175 173 171 179 193 174 167 175 172 142 143 139 137 138 141 147 149 151 149 155 156 157 173 181 155 181 210 148 143 156 141 128 125 78 162 144 154 168 165 169 153 169 137 134 57 122 199 207 131 153 155 156 170
145 124 144 151 161 165 178 175 169 171 199 198 231 204 177 172 167 166 166 164 158 151 150 153 158 161 168 170 168 171 172 185 177 182 176 177 167 161 167 173 166 143 134 138 137 136 140 146 150 149 155 156 167 166 178 170 179 181 138 130 149 147 132 138 155 169 80 93 133 117 108 116 144 150 160 117 130 121 99 133 167 181 154 151 161
146 141 154 159 167 174 182 175 169 184 189 181 193 218 193 170 167 167 161 157 152 150 151 156 155 163 171 173 174 179 184 173 174 186 187 159 150 150 152 171 158 151 138 134 132 133 138 145 151 144 140 168 169 178 178 173 138 116 129 138 137 143 146 145 161 168 160 193 109 110 85 86 133 96 143 149 135 142 128 44 45 30 101 183 184
116 137 159 169 178 190 185 172 180 188 193 182 185 201 199 174 165 159 154 154 151 152 151 158 161 168 170 154 157 217 190 162 161 167 174 150 135 131 150 162 136 142 148 143 136 135 133 141 128 135 153 180 213 168 145 129 134 127 125 123 133 130 137 145 141 174 161 166 125 93 86 88 95 111 143 127 140 130 128 149 136 113 55 27 333
121 139 160 180 187 193 193 175 179 192 192 196 187 180 189 177 167 158 156 161 155 153 151 156 167 163 167 161 154 166 164 138 146 155 165 156 142 142 141 144 147 143 142 146 140 148 141 136 134 142 145 108 259 132 122 116 121 130 137 137 137 131 146 144 155 172 168 159 145 146 119 102 86 83 109 122 92 142 151 159 163 157 138 183 222
140 147 167 181 190 190 183 187 190 190 197 199 192 180 180 182 170 161 157 153 158 154 154 162 169 170 168 165 154 156 159 148 144 147 150 148 150 132 122 116 105 143 145 155 162 158 155 143 153 152 157 147 156 126 138 135 130 134 139 133 140 147 165 155 141 156 158 149 147 150 155 159 161 158 171 157 150 136 120 145 163 176 147 146 210
147 148 158 163 177 202 199 198 198 200 203 209 196 161 164 207 175 154 144 144 148 154 154 161 169 174 168 164 158 159 156 157 163 160 166 158 147 130 117 115 139 168 160 161 166 156 150 157 169 169 176 164 163 127 136 147 136 129 136 145 158 168 172 151 140 149 153 142 145 145 152 152 147 141 170 156 147 148 151 152 161 147 121 123 137
63 60 62 36 356 315 279 272 261 224 220 220 184 75 97 179 183 153 137 133 139 142 164 164 164 172 164 164 157 152 152 152 153 155 160 149 143 139 147 155 163 152 166 156 161 153 162 163 161 151 148 164 146 143 169 169 141 147 159 162 161 167 176 164 148 168 157 150 170 165 150 160 171 161 141 150 139 137 141 145 157 156 137 136 135
51 40 40 38 37 15 1 343 336 339 343 346 3 16 32 39 91 98 104 127 135 134 127 131 121 119 82 257 165 150 148 143 146 150 151 151 154 162 161 162 157 161 158 150 140 136 138 137 129 117 116 126 135 158 166 171 166 162 165 165 171 186 163 160 160 160 139 159 151 150 170 168 159 156 151 138 145 139 148 151 145 122 129 136 137
39 55 65 76 87 70 12 298 1 350 3 359 351 359 359 89 160 144 124 138 151 106 80 80 28 57 32 15 303 159 146 140 150 154 153 164 170 164 163 160 154 161 149 137 116 116 108 110 114 105 101 106 104 101 127 136 147 143 135 153 162 165 158 146 147 139 130 125 129 149 152 133 153 165 143 160 154 154 155 157 144 137 122 129 139
42 46 51 53 46 40 50 41 42 37 86 63 340 331 342 338 174 170 174 157 120 96 92 78 48 67 61 41 332 251 138 140 145 155 164 173 168 163 162 161 157 147 133 116 121 115 105 100 99 104 109 101 95 113 107 110 129 129 126 127 143 152 140 138 154 141 140 135 127 129 118 148 172 167 157 159 159 156 144 148 148 149 145 144 129
47 43 32 23 21 22 30 63 101 115 93 85 12 307 10 305 263 187 146 88 83 117 139 132 122 127 134 151 203 234 153 157 157 161 169 171 159 159 155 149 138 128 125 124 122 112 106 105 105 110 111 118 127 122 106 123 125 127 133 134 152 155 136 151 152 144 154 152 137 146 151 169 193 165 174 157 153 149 152 158 163 159 157 140 151
59 57 47 27 33 21 20 41 108 133 105 103 88 341 195 127 100 96 65 89 120 113 106 124 134 144 163 168 177 191 192 181 167 161 166 147 140 137 133 131 135 131 125 124 117 107 110 115 116 125 142 158 163 152 134 135 134 135 144 158 173 158 151 140 150 150 159 157 136 142 145 167 196 164 188 181 165 165 159 172 167 149 153 152 154
47 42 36 34 14 9 53 63 62 75 92 100 102 72 341 14 122 134 126 111 87 78 61 94 158 164 180 160 151 156 342 283 217 197 135 133 129 129 128 132 126 122 120 118 109 115 119 123 131 144 161 163 134 160 134 143 146 136 130 150 161 154 143 134 163 149 161 145 144 161 171 168 168 173 191 161 168 155 173 177 181 151 161 156 155
46 41 34 41 25 13 20 63 70 79 108 115 107 88 47 9 26 108 111 115 120 122 145 174 179 160 181 130 102 92 88 23 339 174 129 126 122 118 121 121 125 116 116 115 118 123 128 130 139 152 156 131 142 134 120 140 121 136 145 142 157 127 126 147 164 153 139 142 147 154 167 154 167 164 182 130 136 159 166 172 173 159 162 161 153
47 43 37 34 43 42 19 9 41 62 74 71 90 112 114 79 8 48 136 132 127 135 157 170 175 173 166 140 140 126 117 125 142 256 130 124 115 115 120 127 117 117 122 121 124 130 129 134 145 153 137 147 134 108 128 123 125 139 155 165 176 161 148 165 144 149 128 125 118 115 143 161 150 152 187 177 171 178 152 156 176 163 157 155 144
49 51 41 34 30 36 35 20 19 45 57 56 63 89 122 130 130 70 55 115 134 138 159 181 174 175 158 147 145 135 142 154 159 206 121 120 117 120 129 124 133 138 129 132 132 135 137 138 150 150 135 141 121 128 129 126 122 119 173 195 133 119 150 162 123 147 132 122 125 123 94 141 151 149 179 182 205 210 228 149 174 173 171 162 152
45 43 38 31 27 28 36 38 32 30 28 47 69 85 74 118 118 105 90 79 131 159 168 167 173 198 163 151 145 148 153 161 149 157 130 129 129 131 134 138 149 145 134 141 147 149 153 153 149 152 136 143 136 148 117 111 129 143 141 82 119 138 145 123 124 145 136 130 125 132 161 164 143 155 151 274 160 119 229 130 158 152 130 142 153
43 43 42 38 34 33 31 25 36 40 33 29 37 46 53 44 70 96 105 97 113 150 174 174 170 188 176 166 156 153 153 156 151 146 137 140 139 139 139 143 158 149 138 151 150 155 148 150 147 146 152 152 135 151 107 133 130 115 99 94 133 140 120 124 139 130 126 131 142 141 174 155 136 135 215 296 119 41 95 134 111 110 113 126 146
41 45 45 43 40 34 30 30 28 28 32 31 29 33 32 29 39 71 88 87 119 181 173 170 156 151 140 158 157 155 152 155 161 146 146 143 142 139 137 150 158 139 148 146 146 136 136 136 142 150 158 146 157 154 114 138 125 147 131 145 117 73 67 123 131 134 135 133 137 149 161 139 132 125 298 14 30 55 68 129 125 134 122 119 111
36 40 44 43 39 33 33 30 30 34 35 34 34 32 29 28 30 30 88 102 227 211 181 160 129 140 156 147 160 168 166 165 156 144 144 141 141 139 139 152 147 142 146 139 135 132 134 140 144 156 153 152 162 142 146 146 160 144 135 118 97 97 93 99 125 138 139 134 133 141 155 127 111 146 76 25 36 62 56 45 49 75 120 106 96
38 39 43 45 40 34 29 26 30 34 34 33 34 32 26 25 24 40 84 15 265 84 80 84 129 157 156 154 153 179 191 149 152 147 144 140 142 145 144 156 145 141 137 138 135 136 137 144 145 143 144 157 159 148 147 153 154 135 118 107 102 96 71 96 115 111 117 126 120 111 83 69 77 83 75 70 72 63 65 54 44 46 48 89 100
36 38 36 38 38 36 32 24 23 31 37 40 38 37 35 28 25 21 34 76 309 343 37 133 169 146 126 136 145 198 167 126 151 145 136 138 143 142 155 152 144 140 142 146 142 145 153 144 137 120 80 69 59 41 28 68 130 124 119 105 102 97 86 78 73 72 80 80 80 78 78 77 80 73 86 70 81 87 82 64 36 59 66 69 52
34 33 33 32 36 36 34 29 25 28 37 37 35 31 29 29 29 26 23 18 300 327 325 185 138 107 108 104 79 53 106 126 134 131 129 139 145 139 138 137 145 143 143 148 148 138 126 96 73 82 78 66 59 43 25 349 52 103 105 104 104 98 95 90 82 78 68 65 55 57 56 61 71 67 62 67 60 77 102 91 46 72 73 73 75
31 30 27 22 23 29 34 34 29 30 38 38 34 30 30 29 25 25 25 5 13 12 320 224 127 103 88 79 55 56 83 75 79 98 112 120 121 125 118 124 125 120 129 133 136 105 85 96 92 75 77 70 57 51 20 12 42 66 57 57 63 90 99 91 82 72 75 76 78 83 81 70 61 51 35 30 52 63 72 97 125 108 98 91 90
32 31 27 21 16 17 23 27 27 33 44 39 34 31 31 30 26 26 23 10 23 17 345 106 89 83 92 71 55 48 58 68 49 45 63 75 74 86 97 90 76 77 105 117 100 82 95 92 89 85 75 69 59 34 15 24 50 61 73 69 62 37 49 73 85 94 94 86 81 75 59 46 30 54 74 64 31 21 13 33 85 90 102 125 113
29 22 22 20 16 16 18 14 15 29 44 40 36 34 36 30 24 24 24 27 31 28 13 43 87 95 86 79 50 50 48 49 79 72 57 72 76 79 79 82 78 74 71 73 78 84 85 89 87 82 73 67 66 29 35 30 44 56 70 78 68 69 74 73 70 76 77 67 62 56 47 64 70 359 27 64 82 80 63 358 338 11 77 69 118
24 21 15 14 17 16 13 14 20 20 42 44 44 45 38 31 30 22 33 34 36 35 30 25 24 68 107 98 79 71 60 47 51 67 61 66 79 73 78 79 80 83 76 77 89 88 87 85 87 82 71 56 57 24 31 36 40 54 66 73 65 69 75 85 89 85 88 92 98 96 92 89 161 77 56 35 45 23 34 45 4 319 303 218 232
25 18 18 7 9 17 18 21 24 23 21 31 51 55 52 44 39 36 38 37 40 36 36 29 28 24 41 93 91 84 80 76 77 66 70 61 69 71 71 79 83 73 79 85 85 89 89 85 86 87 78 59 49 11 22 34 42 46 73 77 64 65 76 93 98 104 99 98 103 113 125 124 111 89 91 95 56 65 56 47 47 337 305 285 233
24 17 15 10 10 8 17 23 23 23 25 27 26 32 51 46 39 45 40 42 42 42 36 33 30 24 33 46 88 86 88 84 80 78 67 68 61 79 66 70 76 70 68 65 78 83 80 80 77 79 76 58 40 16 23 36 42 41 62 75 71 69 65 70 72 81 96 112 121 131 154 144 62 79 87 187 159 99 124 155 12 294 278 283 354
21 22 21 14 8 15 6 18 27 31 33 34 37 30 40 44 40 43 45 44 44 42 37 33 33 29 28 27 59 81 78 64 72 77 71 68 60 54 78 70 75 76 61 60 59 66 74 74 70 69 69 54 35 21 23 37 44 40 52 53 49 56 77 87 84 88 88 93 116 135 143 103 49 63 15 18 8 326 112 73 24 308 308 323 25
31 28 29 17 16 19 13 16 28 35 38 40 38 39 45 44 41 36 39 43 43 41 33 30 36 31 32 31 41 64 73 79 70 70 77 71 63 51 49 66 71 64 66 60 64 66 62 67 73 71 70 57 31 14 21 32 36 39 59 59 54 64 77 86 87 81 67 48 31 28 34 43 60 51 3 28 18 330 66 101 50 299 280 305 2
20 26 29 29 22 22 20 25 26 29 28 26 34 46 52 52 46 36 36 39 43 40 27 30 31 26 30 36 46 51 56 61 72 85 83 77 73 49 67 88 108 104 86 78 80 74 69 66 70 69 68 71 51 27 32 40 47 51 69 69 66 78 74 72 86 80 73 62 45 41 37 42 50 32 6 23 17 22 68 88 151 232 318 327 320
23 12 23 29 32 33 28 25 28 31 20 20 22 34 50 54 49 42 41 41 37 34 29 28 27 28 30 33 39 46 52 59 60 64 78 82 75 82 81 80 85 88 87 87 81 83 79 73 75 82 73 73 65 44 41 48 48 44 51 52 51 61 58 41 68 85 75 74 58 52 52 56 68 73 42 31 27 43 79 50 6 310 282 296 323
18 26 17 21 30 40 40 36 31 27 21 20 24 36 39 45 46 45 45 43 38 32 26 28 30 30 34 37 35 42 48 48 53 61 64 69 78 78 79 83 81 89 89 85 85 87 88 81 78 77 75 73 72 59 45 51 51 50 51 59 49 55 43 29 33 82 82 54 42 30 26 22 31 44 52 46 36 26 44 37 25 46 14 348 345
24 12 0 39 34 41 45 44 42 35 29 19 21 40 40 37 37 38 41 40 36 31 28 30 34 35 36 39 39 38 43 42 40 43 52 59 66 86 89 89 90 91 96 92 91 93 91 90 81 76 78 68 69 70 50 53 54 52 48 56 57 54 41 41 59 63 61 53 33 23 10 9 11 19 37 53 57 40 22 24 41 39 9 295 308
32 30 24 28 39 42 47 45 47 46 40 27 27 40 35 32 33 29 17 6 35 38 34 35 34 35 35 37 40 39 43 46 42 46 54 52 39 46 68 94 106 106 105 104 102 96 93 89 83 77 74 73 60 61 65 52 56 57 57 55 59 47 23 56 67 71 62 51 37 22 10 353 0 7 11 26 43 42 45 72 70 226 284 338 339
18 28 26 26 31 32 31 33 36 41 43 36 38 44 37 34 34 16 4 12 22 47 53 50 44 40 35 38 41 42 43 41 41 42 50 50 40 47 48 52 72 82 92 100 102 105 102 95 88 78 76 73 66 59 52 53 46 49 48 53 59 55 31 49 66 69 61 62 86 17 359 356 353 359 3 12 28 34 83 100 274 315 314 317 316
39 49 41 34 34 29 28 25 27 30 25 21 36 44 42 41 26 360 8 14 21 33 53 55 50 46 41 39 39 42 42 43 42 44 50 50 45 48 51 47 60 72 78 84 87 89 93 99 98 90 78 65 58 58 45 43 41 41 40 39 41 43 47 48 71 69 44 21 5 358 330 318 337 357 355 0 54 62 49 343 337 335 331 319 303
42 41 27 50 50 42 31 29 24 19 16 16 16 37 45 48 19 9 9 16 20 26 40 49 41 38 45 44 44 44 42 42 42 43 47 42 42 42 51 36 53 55 56 53 45 71 96 107 102 95 76 55 42 43 40 30 31 36 36 33 34 32 26 32 48 33 22 13 351 336 328 326 326 339 354 4 152 171 113 351 334 335 339 2 7
45 46 37 35 47 48 41 35 25 16 13 6 7 19 41 38 17 21 20 15 26 33 41 46 49 49 50 51 52 47 42 38 45 51 53 49 51 46 50 41 49 58 60 62 55 53 50 55 75 72 61 55 39 32 28 21 19 23 26 23 25 31 25 21 35 23 2 354 351 341 331 328 322 326 348 344 338 342 344 350 352 0 0 6 21
52 41 45 40 43 48 50 48 39 18 14 9 7 5 13 20 29 18 18 27 34 46 51 60 68 62 56 56 56 48 47 40 35 43 51 51 49 56 58 50 43 45 52 55 53 53 55 57 63 61 59 50 51 36 16 11 15 12 14 9 18 20 18 17 19 4 356 353 337 338 321 315 311 315 326 320 344 343 355 2 359 349 330 313 354
80 62 55 53 48 52 49 49 43 20 15 7 4 1 358 4 3 19 23 27 36 28 39 63 76 75 74 73 71 61 61 56 46 43 44 48 46 48 57 50 42 38 60 56 56 53 57 60 56 51 57 50 36 37 25 8 356 3 355 6 9 22 21 11 360 354 343 333 334 331 348 0 5 7 2 355 354 351 346 342 337 329 328 328 329
125 98 92 80 68 56 49 49 41 31 21 8 4 355 353 2 8 3 17 59 46 42 46 43 51 80 78 73 75 76 73 70 69 63 55 41 41 53 69 66 36 25 48 82 83 71 70 71 72 51 51 44 31 22 1 302 283 292 319 338 354 346 358 9 337 331 328 334 7 28 33 35 40 38 32 26 19 15 8 0 357 342 337 351 345
182 149 118 98 92 80 61 44 29 19 15 11 355 345 345 359 14 21 33 55 59 47 37 35 49 73 93 89 86 79 78 75 76 79 76 58 42 48 44 67 56 27 42 42 57 74 74 96 81 54 65 87 83 296 281 298 284 267 265 255 252 265 286 286 314 325 89 39 45 52 42 41 37 40 38 34 25 23 18 16 12 17 19 11 1
38 44 47 90 94 86 77 59 38 21 15 3 359 348 353 10 27 26 26 35 39 40 30 24 29 41 68 102 110 103 96 95 92 86 82 91 85 48 52 58 61 52 43 39 45 47 42 40 79 112 93 114 142 301 348 345 347 339 324 322 310 64 70 93 17 45 42 51 52 53 41 38 37 45 47 36 33 34 25 24 16 11 23 9 357